Regional Weather Roundup
Issued by NWS Grand Forks, ND

Home | Current Version | Previous Version | Text Only | Print | Product List | Glossary Off
Versions: 1 2 3 4 5 6 7 8 9 10 11 12 13 14 15 16 17 18 19 20 21 22 23 24 25 26 27 28 29 30 31 32 33 34 35 36 37 38 39 40 41 42 43 44 45 46 47 48 49 50

000
ASUS43 KFGF 061710
RWRFGF
PRAIRIE TO PINES  WEATHER ROUNDUP
NATIONAL WEATHER SERVICE EASTERN NORTH DAKOTA/GRAND FORKS ND
1100 AM CST SAT FEB 06 2016

 **SATELLITE DATA USED TO AUGMENT SKY COVER AT AUTOMATED STATIONS**
 *****  WEATHER ACROSS EASTERN NORTH DAKOTA  *****

CITY           SKY/WX    TMP DP  RH WIND       PRES   REMARKS
GRAND FORKS    CLOUDY    30  24  78 S14       29.75F WCI  19
GRAND FRKS AFB CLOUDY    30  25  80 S10       29.74F WCI  21
GRAND FRKS NWS   N/A     28 N/A N/A S14         N/A  WCI  17
DEVILS LAKE    SUNNY     36  27  69 SW13      29.70F
FARGO          MOSUNNY   32  25  75 S13       29.81F WCI  22
WAHPETON ARPT  PTSUNNY   34  27  75 S9        29.86F
$$

 ***** WEATHER ACROSS CENTRAL AND WESTERN NORTH DAKOTA  *****

CITY           SKY/WX    TMP DP  RH WIND       PRES   REMARKS
BISMARCK       CLOUDY    44  26  49 SW7       29.79F
MINOT          CLOUDY    47  26  44 SW15G23   29.66S
JAMESTOWN      MOSUNNY   39  26  59 SW16      29.76F
MINOT AFB      CLOUDY    45  29  54 W15G21    29.64F
GARRISON         N/A     41  26  55 W20G26    29.71R
WILLISTON      CLOUDY    41  28  60 SW8       29.70F
DICKINSON      MOSUNNY   42  21  43 W17       29.78F
HETTINGER      CLOUDY    41  21  44 W14       29.85F
$$

 *****  OTHER AIRPORT OBSERVATIONS IN OUR AREA  *****

CITY           SKY/WX    TMP DP  RH WIND       PRES   REMARKS
WALHALLA       FAIR      28  28 100 SE7       29.68F WCI  21
GRAFTON AIRPOR FAIR      28  27  93 S15       29.74F WCI  17
VALLEY CITY AR MIX PCPN  37  28  70 SW15      29.78F
CANDO          NOT AVBL
CAVALIER APRT  FAIR      25  23  93 SE7       29.71F WCI  17
GWINNER          N/A     34  28  80 SW21      29.84S WCI  22
SHEYENNE NWR     N/A     34  26  72 SW10      29.95
ROLLA          FAIR      32  27  80 SW10      29.63F WCI  24
 ***** THE ABOVE OBSERVATIONS ARE NON NWS ARE NOT QUALITY
       CONTROLLED AND MAY MIS-REPORT RAIN FOR SNOW...
$$

  *****  WEATHER ACROSS NORTHERN MINNESOTA  *****

CITY           SKY/WX    TMP DP  RH WIND       PRES   REMARKS
FLAG ISLAND    CLOUDY    21  18  86 SE6       29.81F WCI  14
WARROAD        CLOUDY    25  21  86 E7        29.80F WCI  17
ROSEAU         MOSUNNY   28  21  74 S7        29.78F WCI  21
HALLOCK        CLOUDY    27  23  86 S16       29.74F WCI  14
THF RVR FALLS  CLOUDY    28  23  80 S10       29.79F WCI  19
BAUDETTE       CLOUDY    25  18  74 SE9       29.81F WCI  15
WASKISH        CLOUDY    30  21  69 SE5       29.82F
CROOKSTON      CLOUDY    28  25  86 S15       29.79F WCI  17
STEPHEN NDAWN    N/A     27  23  86 S12         N/A  WCI  16
GREENBUSH NDAW   N/A     27  23  86 S10         N/A  WCI  17
$$
  *****  WEATHER ACROSS CENTRAL AND WEST MINNESOTA  *****

CITY           SKY/WX    TMP DP  RH WIND       PRES   REMARKS
FOSSTON        CLOUDY    28  23  80 S16       29.80F WCI  17
BEMIDJI        CLOUDY    27  22  80 S7        29.82F WCI  20
PARK RAPIDS    CLOUDY    30  23  75 S14       29.84F WCI  19
ELBOW LAKE     FAIR      30  25  82 S14       29.89F HAZE    WCI  19
WADENA         CLOUDY    30  23  74 S9        29.87F WCI  22
DETROIT LAKES  CLOUDY    32  27  80 S9        29.84F WCI  24
MOORHEAD       CLOUDY    30  25  80 S13       29.84F WCI  20
FERGUS FALLS   CLOUDY    32  25  74 S13       29.90F WCI  22
MORRIS MN      MOSUNNY   34  27  75 S14       29.90F WCI  24
STAPLES        CLOUDY    28  21  74 S10       29.90F WCI  19
$$
  *****  WEATHER ELSEWHERE ACROSS MINNESOTA  *****

CITY           SKY/WX    TMP DP  RH WIND       PRES   REMARKS
DULUTH         CLOUDY    25  19  78 SW9       29.95F WCI  15
INTRNTL FALLS  CLOUDY    24  18  77 SE8       29.86F WCI  15
ELY            CLOUDY    23  18  80 SE6       29.91F WCI  16
CLOQUET        CLOUDY    27  19  74 S10       29.95F WCI  17
WHEATON        CLOUDY    37  28  70 S9        29.90F
BRAINERD       CLOUDY    28  23  81 S14       29.92F WCI  17
HIBBING        CLOUDY    24  19  81 S7        29.91F WCI  16
ALEXANDRIA     CLOUDY    32  23  69 SW16      29.91F WCI  21
SAINT CLOUD    CLOUDY    27  22  81 S13       29.99F WCI  16
MINNEAPOLIS    CLOUDY    30  24  78 S10       30.09S WCI  21
$$

  *****  WEATHER ACROSS SOUTH DAKOTA  *****

CITY           SKY/WX    TMP DP  RH WIND       PRES   REMARKS
SIOUX FALLS    PTSUNNY   27  22  81 S13       30.05F WCI  16
BROOKINGS      CLOUDY    32  26  78 S9        29.99F WCI  24
WATERTOWN      CLOUDY    32  24  72 S13       29.93F WCI  22
HURON          MOSUNNY   31  25  78 S12       29.98F WCI  22
SISSETON         N/A     37  25  61 W23G31    29.84F
ABERDEEN       MOSUNNY   37  29  72 SW14      29.89F
MITCHELL       MOSUNNY   33  25  72 SW8       30.03F
PIERRE         SUNNY     39  23  52 SW14      29.93F
MOBRIDGE       CLOUDY    43  28  55 S6        29.85F
RAPID CITY     CLOUDY    40  28  62 SE3       29.97F
$$

  *****  SOME WEATHER IN NEARBY STATES *****

CITY           SKY/WX    TMP DP  RH WIND       PRES   REMARKS
GLASGOW MT     CLOUDY    42  30  62 W24G35    29.73S
GREAT FALLS MT SUNNY     39  22  50 SW40G48   29.93S
CHEYENNE WY    CLOUDY    35  18  49 W30G41    30.11F WCI  22
SCOTTSBLUFF NE CLOUDY    33  19  56 CALM      30.14F
OMAHA NE       MOSUNNY   31  28  89 SW7       30.23R WCI  24
DES MOINES IA  CLOUDY    31  27  85 W8        30.24S FOG     WCI  23
DAVENPORT IA   SUNNY     35  24  64 SW9       30.24F
CHICAGO IL     PTSUNNY   35  25  66 W17       30.24F WCI  25
EAU CLAIRE WI  CLOUDY    27  20  75 SW9       30.11F WCI  18
LA CROSSE WI   MOSUNNY   30  23  75 S9        30.17F WCI  22
$$

  *****  SOME NATIONAL WEATHER *****

CITY           SKY/WX    TMP DP  RH WIND       PRES   REMARKS
LA GUARDIA NY  PTSUNNY   38  19  46 SW12      30.39F
RALEIGH NC     CLOUDY    43  19  38 CALM      30.43F
ATLANTA GA     PTSUNNY   46  18  32 E8        30.36F
NEW ORLEANS LA PTSUNNY   56  21  25 NE12      30.35F
OKLAHOMA CITY  MOSUNNY   43  30  60 NW9       30.40R
ALBUQUERQUE NM SUNNY     35  13  40 N9        30.50F
SALT LAKE CITY MOSUNNY   28  20  71 SE9       30.53F WCI  19
LOS ANGELES CA SUNNY     65  23  20 VRB7      30.28R
BOISE ID       CLOUDY    38  29  70 SE6       30.43R
SEATTLE WA     CLOUDY    44  39  82 S10       30.44R
$$

*** WEATHER ACROSS MANITOBA...SASKATCHEWAN AND ONTARIO ***
                ***ONTARIO***

CITY           SKY/WX    TMP DP  RH WIND       PRES   REMARKS
GERALDTON      FLURRIES   3  -4  72 NW8       30.01R WCI -10
THUNDER BAY    CLOUDY    23  16  74 SE2       30.01S
SIOUX LOOKOUT  FLURRIES  12   7  79 SE5       29.93S WCI   4
TORONTO        PTSUNNY   36  19  51 W16G22    30.18F
BIG TROUT LK   SUNNY    -26 -33  68 S3        30.11R
PICKLE LAKE    MOSUNNY   -6 -17  59 NE3       29.99F
DRYDEN         CLOUDY    18  14  86 SE9       29.88F WCI   6
KENORA         FLURRIES  19  18  93 SE10      29.82F WCI   8
$$
                *** MANITOBA***

CITY           SKY/WX    TMP DP  RH WIND       PRES   REMARKS
BRANDON        CLOUDY    27  23  86 CALM      29.59F
DAUPHIN        SUNNY     23  19  86 SE9       29.56F WCI  13
ISLAND LAKE    PTSUNNY  -13 -20  70 SE9       29.96F WCI -31
PILOT MOUND      N/A     30  27  86 S13         N/A  WCI  20
THE PAS        FLURRIES  12   9  85 SE10G20   29.58F WCI  -1
THOMPSON       CRYSTALS -11 -20  64 E5        29.87F WCI -23
WINNIPEG       CLOUDY    25  19  80 SE17      29.71F WCI  11
LYNN LAKE      LGT SNOW  -6 -11  77 SE16G23   29.64S WCI -28
CHURCHILL      SUNNY    -35 -42  67 S5        30.14F WCI -50
GILLAM         MOSUNNY  -18 -27  63 SE5       30.05F WCI -31
$$
                ***SASKATCHEWAN***

CITY           SKY/WX    TMP DP  RH WIND       PRES   REMARKS
ESTEVAN        PTSUNNY   41  30  65 SW20G26   29.60F
KINDERSLEY     CLOUDY    36  30  80 W17       29.50R
LLOYDMINSTER   CLOUDY    39  28  65 NW23G33   29.45R
PRINCE ALBERT  PTSUNNY   19  16  86 E7        29.35F WCI  10
REGINA         PTSUNNY   41  28  60 SW13      29.51S
YORKTON        PTSUNNY   32  30  93 S7        29.45F
N. BATTLEFORD  SUNNY     37  27  65 W10       29.42R
LA RONGE       CLOUDY    16  12  86 E10       29.38F WCI   3
SASKATOON      CLOUDY    37  30  75 W15G22    29.39F
SWIFT CURRENT  PTSUNNY   43  27  52 W43G55    29.52R
$$
NOTE: THESE ARE AUTOMATED STATIONS WITH LIMITED QUALITY CONTROL
      "FAIR" INDICATES FEW OR NO CLOUDS BELOW 12,000 FEET WITH NO
      SIGNIFICANT WEATHER AND/OR OBSTRUCTIONS TO VISIBILITY.
      SKY/WX - SKY CONDITION AND SIGNIFICANT WEATHER.
      TMP - AIR TEMPERATURE.    DP   - DEWPOINT TEMPERATURE.
      RH  - RELATIVE HUMIDITY.  PRES - PRESSURE.
      HX  - HEAT INDEX.         WCI  - WIND CHILL INDEX.
$



USA.gov is the U.S. government's official web portal to all federal, state and local government web resources and services.